Location: Unspecified
(48.5910°N, 12.0210°E)
Time: 06:28:00
(UTC+00:00)

Daily predictions for brighter satellites

Satellite Brightness Start Highest point End
(mag) Time Altitude Azimuth Time Altitude Azimuth Time Altitude Azimuth
Cosmos 676 Rocket 4.2 18:47:59 10° NNW 18:53:11 58° ENE 18:58:18 10° SE
Cosmos 1151 Rocket 3.1 18:50:44 10° S 18:55:01 86° W 18:59:21 10° N
ATLAS CENTAUR R/B 3.2 18:53:31 10° WSW 18:56:56 33° NW 19:00:33 10° NNE
Cosmos 1980 4.2 18:54:25 10° SW 19:00:05 70° WNW 19:05:47 10° NNE
ERS-2 3.0 18:56:54 10° S 19:00:29 52° WSW 19:04:06 10° NNW
Cosmos 1727 Rocket 4.1 18:55:25 10° N 19:01:35 65° ENE 19:07:42 10° SSE
USA 81 4.4 18:57:54 10° N 19:03:03 49° E 19:08:08 10° SSE
Cosmos 2369 Rocket 3.4 18:58:47 10° NNW 19:03:47 30° NE 19:08:44 10° ESE
Cosmos 1140 Rocket 3.6 18:59:08 10° NNW 19:04:17 60° ENE 19:09:22 10° SE
NOSS 3-4 (A) 4.2 18:59:25 10° NW 19:06:20 66° SW 19:13:47 10° SSE
NOSS 3-4 (C) 4.2 18:59:31 10° NW 19:06:26 67° SW 19:13:54 10° SSE
Cosmos 2297 4.0 19:03:03 10° NNW 19:08:44 74° WSW 19:14:25 10° SSE
Cosmos 2056 Rocket 3.6 19:06:06 10° SSW 19:11:31 80° ESE 19:16:55 10° NNE
ATLAS 5 CENTAUR R/B 3.0 19:06:12 10° NW 19:11:38 44° NE 19:17:38 10° ESE
Cosmos 1452 Rocket 4.1 19:07:19 10° SSE 19:12:01 34° ESE 19:16:44 10° NE
H-2A R/B 2.9 19:07:43 10° SE 19:12:06 32° ENE 19:16:26 10° N
Cosmos 2219 Rocket 4.2 19:10:16 10° WSW 19:15:23 34° NW 19:20:30 10° NNE
Cosmos 1862 3.3 19:12:57 10° N 19:16:59 66° E 19:20:57 10° SSE
Cosmos 2344 3.9 19:13:38 10° S 19:20:39 42° ESE 19:28:21 10° NE
Resurs 01 Rocket 2.3 19:18:14 10° S 19:22:35 56° W 19:26:58 10° NNW
Cosmos 2333 Rocket 4.1 19:19:25 10° WSW 19:24:32 34° NW 19:29:40 10° NNE
Meteor 1-4 Rocket 4.3 19:23:22 10° NNE 19:25:40 17° ENE 19:27:17 13° E
Cosmos 2218 Rocket 4.3 19:19:26 10° SSW 19:25:49 79° W 19:32:17 10° N
Cosmos 2237 Rocket 3.3 19:20:28 10° SW 19:25:55 50° NW 19:31:25 10° NNE
Cosmos 1624 Rocket 4.3 19:22:10 10° SSW 19:27:20 74° WNW 19:32:35 10° NNE
Cosmos 2366 rocket 4.2 19:22:46 10° S 19:29:02 82° W 19:35:25 10° N
Cosmos 1707 Rocket 3.7 19:26:25 10° SSE 19:30:35 49° E 19:34:48 10° NNE
Spot 2 Rocket 3.9 19:26:56 10° S 19:31:59 64° WSW 19:37:03 10° NNW
Cosmos 1954 Rocket 4.1 19:27:53 10° NNW 19:33:07 80° WSW 19:38:15 10° SSE
RESURS DK-1 3.3 19:31:52 10° NNW 19:35:43 35° NE 19:38:26 17° ESE
Cosmos 1741 Rocket 4.3 19:31:06 10° NNW 19:36:21 53° ENE 19:40:21 17° SE
Cosmos 1869 Rocket 3.7 19:32:21 10° NNW 19:36:43 77° W 19:41:02 10° S
Cosmos 614 Rocket 4.2 19:32:29 10° NNW 19:37:43 74° WSW 19:42:48 10° SSE
GENESIS II 4.2 19:34:02 10° NW 19:38:00 78° NE 19:40:45 19° SE
Cosmos 1441 Rocket 3.1 19:35:41 10° S 19:39:25 89° WNW 19:43:14 10° NNE
Lacrosse 5 1.9 19:34:25 10° NW 19:39:31 80° NNE 19:43:21 18° ESE
Meteor 2-10 Rocket 4.0 19:34:28 10° SSW 19:40:16 75° WNW 19:46:07 10° N
Cosmos 1733 Rocket 3.7 19:38:08 10° N 19:42:15 38° ENE 19:44:50 20° SE
Cosmos 2098 Rocket 3.5 19:39:05 10° SSW 19:42:50 48° W 19:45:58 10° N
BREEZE M DEB (TANK) 4.4 19:24:17 10° WSW 19:45:07 88° SSE 19:50:14 10° ENE
MetOp-B 4.2 19:40:42 14° SSE 19:45:17 68° ENE 19:50:37 10° N
SPOT 5 3.5 19:44:47 19° ESE 19:47:20 33° ENE 19:51:15 10° N
SL-8 R/B 3.7 19:45:01 10° W 19:49:50 90° SSE 19:54:10 13° E
USA 234 4.3 19:44:53 10° ENE 19:50:59 43° N 19:57:03 10° WNW
ERS-1 Rocket 3.0 19:49:40 18° SSE 19:53:21 64° ENE 19:58:20 10° N
Cosmos 1943 Rocket 2.7 19:49:17 10° NNW 19:54:36 46° NE 19:58:06 21° ESE
Helios 1B rocket 3.8 19:51:54 10° NE 19:55:04 21° E 19:55:37 20° ESE
ARGOS 3.1 19:50:23 13° SSE 19:55:07 90° E 20:00:32 10° NNW
Meteor 1-14 Rocket 4.5 19:51:00 10° N 19:56:25 51° ENE 19:59:53 22° SE
Cosmos 2098 4.4 19:57:06 16° S 19:59:36 82° E 20:03:31 10° N
Meteor 1-25 Rocket 4.5 19:55:07 10° N 20:00:44 53° ENE 20:04:10 23° SE
Cosmos 1420 Rocket 4.0 20:03:41 10° SSW 20:09:00 84° ESE 20:14:22 10° NNE
Cosmos 1934 Rocket 4.0 20:06:31 17° SSE 20:11:06 57° E 20:17:01 10° NNE
Meteor 1-20 Rocket 4.3 20:06:49 10° N 20:12:15 59° ENE 20:15:17 26° SE
Gblst 52 Del rocket 4.1 20:06:53 10° SW 20:12:19 59° SSE 20:17:45 10° ENE
Meteor 1-26 Rocket 4.2 20:09:06 16° S 20:13:26 62° E 20:19:00 10° NNE
Cosmos 405 Rocket 4.2 20:12:51 10° SW 20:16:31 38° WNW 20:20:19 10° N
Cosmos 1933 3.7 20:13:26 10° SSW 20:17:27 64° W 20:21:33 10° N
Landsat 7 4.2 20:16:47 29° SE 20:18:52 50° ENE 20:23:29 10° N
Cosmos 1782 3.7 20:19:29 30° E 20:19:47 30° E 20:23:18 10° NNE
SL-16 R/B 3.4 20:15:12 10° SW 20:20:36 45° NW 20:26:04 10° NNE
SL-08 RB Rocket 3.9 20:18:41 21° S 20:21:37 64° WSW 20:26:05 10° NNW
CZ-4C R/B 2.2 20:21:21 10° SW 20:26:38 90° NW 20:32:50 10° NE
Meteor 1-29 4.1 20:26:24 10° NNE 20:28:53 29° ENE 20:28:53 29° ENE
Cosmos 921 Rocket 2.8 20:27:36 22° S 20:30:18 77° ESE 20:34:35 10° NNE
SL-24 R/B 4.4 20:31:49 29° SSE 20:34:31 83° E 20:39:25 10° N
Cosmos 1461 3.2 20:30:06 10° NW 20:34:55 76° NE 20:36:36 40° SE
Cosmos 1437 Rocket 3.6 20:31:31 10° NNW 20:35:18 46° W 20:37:15 25° SSW
Terra 2.2 20:35:17 36° ESE 20:36:50 51° ENE 20:41:27 10° N
Intercosmos 24 4.4 20:31:41 11° SSW 20:37:04 74° W 20:41:06 10° N
Cosmos 1703 Rocket 4.2 20:38:30 35° E 20:38:43 35° E 20:42:40 10° NNE
Cosmos 1110 Rocket 4.2 20:38:39 35° SSE 20:40:26 50° ESE 20:45:35 10° NNE
Cosmos 2242 Rocket 3.6 20:37:59 26° SSW 20:40:28 79° W 20:44:56 10° N
Helios 1A 3.3 20:39:11 33° S 20:40:54 62° WSW 20:45:04 10° NNW
Cosmos 1908 Rocket 3.6 20:36:59 10° N 20:41:26 67° ENE 20:42:36 46° SE
USA 245 3.9 20:42:56 27° W 20:42:56 27° W 20:44:33 10° NW
CZ-2C R/B 4.0 20:38:49 10° NE 20:43:02 23° E 20:43:13 23° E
SPOT 1/Viking Rocket 3.6 20:41:24 32° S 20:43:53 81° WSW 20:49:09 10° NNW
Cosmos 1943 3.1 20:41:50 20° SSW 20:45:45 68° ESE 20:51:26 10° NNE
Cosmos 1862 Rocket 3.6 20:45:36 29° SSW 20:47:49 74° W 20:52:12 10° N
Cosmos 1821 Rocket 4.5 20:41:45 10° SSW 20:47:59 60° WNW 20:54:12 10° N
SL-19 R/B 4.3 20:45:31 34° SSE 20:48:06 85° WSW 20:53:51 10° NNW
Cosmos 2369 Rocket 2.6 20:42:35 10° NW 20:48:10 58° WSW 20:50:47 31° S
Cosmos 1603 3.9 20:42:37 10° SW 20:48:14 73° WNW 20:53:52 10° NNE
GEOS 3 Rocket 4.1 20:44:45 10° NE 20:49:43 38° ESE 20:49:49 38° ESE
H-2A R/B 3.1 20:48:13 18° SSW 20:51:28 38° W 20:56:03 10° NNW
Cosmos 1633 3.2 20:48:12 10° NNW 20:51:39 47° W 20:52:27 39° SW
IGS 5A 3.4 20:51:43 56° SE 20:52:31 77° ENE 20:56:42 10° N
DMSP B5D2-2 4.1 20:50:29 10° NNE 20:55:47 85° WNW 20:58:48 27° SSW
ATLAS 5 CENTAUR R/B 2.8 20:50:50 10° NW 20:56:33 52° WSW 20:59:12 32° S
CZ-2C R/B 3.2 20:55:41 42° ESE 20:56:48 51° ENE 21:01:35 10° N
USA 267 4.1 20:51:39 10° ENE 20:56:09 28° ESE 20:56:09 28° ESE
Meteor 2-17 Rocket 4.5 20:53:28 21° SSW 20:57:43 80° W 21:03:52 10° N
Cosmos 389 Rocket 2.4 20:54:23 10° N 20:57:43 74° NE 20:57:43 74° NE
Cosmos 2221 Rocket 4.4 21:01:05 36° E 21:01:05 36° E 21:05:07 10° NNE
Meteor 1-4 Rocket 3.6 20:57:44 10° NNW 21:00:56 35° W 21:01:33 32° WSW
Cosmos 2263 4.4 20:57:02 10° NW 21:02:34 60° WSW 21:04:35 38° S
Cosmos 2123 Rocket 4.5 20:58:01 10° NNW 21:04:08 56° W 21:07:49 24° SSW
Cosmos 1606 3.1 21:09:23 47° SW 21:10:11 60° W 21:14:05 10° N
RESURS DK-1 3.8 21:10:06 10° NW 21:13:41 28° WSW 21:14:21 26° SW
ALOS 2 4.5 21:18:40 18° ENE 21:19:12 19° ENE 21:22:15 10° NNE
Nimbus 7 Rocket 4.3 21:16:01 10° NNE 21:21:56 75° ESE 21:23:41 47° S
Lacrosse 5 3.2 21:17:59 10° WNW 21:22:03 25° SW 21:22:32 24° SW
Cosmos 1354 Rocket 4.5 21:17:16 10° NNW 21:22:23 48° ENE 21:23:26 42° E
Cosmos 1900 4.2 21:18:54 10° NW 21:23:49 81° NE 21:24:29 66° ESE
CARTOSAT-1 4.0 21:24:02 47° SW 21:24:40 51° W 21:28:54 10° NNW
Meteor 1-11 Rocket 3.6 21:19:15 10° N 21:24:52 77° ENE 21:26:02 56° SSE
SPOT 5 4.1 21:24:01 24° SW 21:25:27 29° W 21:29:17 10° NW
Meteor 1-5 Rocket 4.3 21:20:53 10° N 21:26:14 59° ENE 21:27:12 51° ESE
Cosmos 2173 Rocket 4.1 21:26:18 48° SE 21:27:45 60° E 21:33:58 10° NNE
Helios 1B rocket 3.5 21:26:37 10° N 21:30:32 42° WNW 21:31:58 30° WSW
Cosmos 1302 Rocket 3.9 21:30:51 64° SE 21:31:13 67° ESE 21:36:25 10° NNE
Okean 1-7 2.9 21:31:50 88° NNE 21:31:50 88° NNE 21:36:06 10° N
SL-8 R/B 3.7 21:27:35 10° W 21:32:09 67° SW 21:32:09 67° SW
Meteor 1-27 Rocket 3.8 21:31:23 55° SE 21:32:26 66° E 21:38:09 10° NNE
USA 234 3.6 21:29:08 22° E 21:33:26 62° NNE 21:39:52 10° NW
Cosmos 1656 Rocket 3.6 21:28:48 10° NNW 21:34:31 78° WSW 21:35:36 59° S
Cosmos 2344 4.4 21:27:18 10° WSW 21:34:50 56° NW 21:43:50 10° NE
Cosmos 1943 Rocket 3.3 21:33:19 10° NW 21:38:11 32° WSW 21:39:38 28° SW
SAR-Lupe-4 4.3 21:41:10 53° NNW 21:41:10 53° NNW 21:43:59 10° NNW
Meteor 2-12 Rocket 4.4 21:40:08 54° SE 21:41:05 60° E 21:47:03 10° NNE
Cosmos 968 Rocket 4.3 21:37:22 10° N 21:42:18 39° ENE 21:43:17 36° E
Cosmos 2016 Rocket 4.1 21:42:42 51° ESE 21:43:35 56° E 21:49:32 10° NNE
Cosmos 1782 Rocket 4.3 21:44:12 10° NNW 21:48:29 44° W 21:48:49 43° WSW
Cosmos 1271 Rocket 3.3 21:48:04 10° NNW 21:51:29 57° NW 21:51:29 57° NW
Cosmos 1459 Rocket 3.8 21:51:08 56° S 21:52:32 88° E 21:58:39 10° N
Okean 2 Rocket 3.6 21:57:51 10° NNW 22:01:59 52° W 22:01:59 52° W
Gblst 52 Del rocket 4.3 21:58:33 10° W 22:04:01 69° N 22:09:44 10° ENE
Cosmos 1674 Rocket 4.5 22:09:03 40° NE 22:09:03 40° NE 22:12:19 10° NNE
SeaSat 1 3.7 22:10:04 29° ENE 22:11:20 33° NE 22:15:45 10° NNW
CZ-4 R/B 3.9 22:09:14 10° NNE 22:13:52 70° ENE 22:13:52 70° ENE
Cosmos 1536 3.7 22:10:41 10° NNW 22:13:49 44° NW 22:13:49 44° NW
Terra 3.5 22:14:10 21° WSW 22:14:51 22° W 22:18:34 10° NW
Tsikada Rocket 3.9 22:09:23 10° N 22:15:40 79° E 22:16:40 64° SE
COBE Rocket 4.3 22:11:00 10° NNE 22:15:00 50° ENE 22:15:00 50° ENE
CZ-4C R/B 4.2 22:11:04 10° W 22:16:02 30° NNW 22:21:42 10° NE
DELTA 2 DEB (DPAF) 4.4 22:18:21 66° NNE 22:18:21 66° NNE 22:22:24 10° N
H-2A R/B 2.6 22:19:21 57° NE 22:19:21 57° NE 22:23:27 10° N
Cosmos 1867 4.4 22:16:42 10° NNW 22:21:59 45° NE 22:23:29 36° E
CZ-2C R/B 3.0 22:18:22 10° N 22:23:42 61° WNW 22:24:45 51° WSW
CZ-4B R/B 4.1 22:19:25 10° NNE 22:23:11 41° ENE 22:23:11 41° ENE
Cosmos 1812 3.9 22:26:22 41° N 22:26:22 41° N 22:29:00 10° N
Cosmos 2151 Rocket 4.2 22:22:14 10° NNW 22:26:13 51° WNW 22:26:13 51° WNW
Cosmos 1503 Rocket 4.4 22:22:10 10° NNW 22:27:04 52° W 22:27:04 52° W
GEOS 3 Rocket 4.3 22:22:38 10° NE 22:27:53 54° NW 22:30:53 25° WSW
Mayak -0.1 22:24:19 10° NNE 22:27:14 38° NE 22:27:14 38° NE
Lacrosse 4 Rocket 2.8 22:25:34 10° NNW 22:29:37 33° NE 22:30:01 33° ENE
Cosmos 1816 Rocket 4.3 22:24:18 10° N 22:30:35 89° W 22:31:26 69° S
Cosmos 1980 Rocket 4.1 22:26:52 10° N 22:31:17 23° NE 22:34:47 13° E
Cosmos 1697 Rocket 4.0 22:26:15 10° NNW 22:31:22 33° NE 22:33:28 26° E
Cosmos 1743 4.3 22:28:58 10° N 22:31:35 30° NE 22:31:35 30° NE
Cosmos 1656 4.4 22:27:42 10° NNW 22:33:14 46° NE 22:34:29 40° E
USA 32 4.4 22:30:19 10° N 22:35:29 54° E 22:35:30 54° E
ADEOS Rocket 3.5 22:30:44 10° NNE 22:37:07 46° E 22:37:34 45° ESE
Cosmos 2278 4.3 22:34:42 10° NNW 22:40:12 48° NE 22:41:20 42° E
USA 267 3.1 22:34:15 10° NE 22:40:51 87° SSE 22:43:27 41° SW
Cosmos 2233 Rocket 3.8 22:49:47 73° SSE 22:50:20 81° E 22:56:31 10° N
Okean 3 4.2 22:53:18 52° NNW 22:53:18 52° NNW 22:56:46 10° N
Cosmos 2082 Rocket 3.7 22:53:31 23° E 22:53:31 23° E 22:57:13 10° NE
COSMOS 2406 3.1 22:53:30 80° WSW 22:53:49 85° WNW 22:59:34 10° NNE
ALOS 2 3.4 22:56:03 47° NW 22:56:03 47° NW 22:59:29 10° NNW
Gbstr 26 Del rocket 4.3 22:53:12 28° WSW 22:57:55 82° SSE 23:05:27 10° ENE
Cosmos 1992 Rocket 4.2 23:00:47 62° W 23:01:01 63° WNW 23:06:15 10° NNE
Cosmos 2084 Rocket 4.4 23:06:47 46° NNE 23:06:47 46° NNE 23:09:49 10° NE
Okean 1 Rocket 4.1 23:05:32 10° NNW 23:08:55 40° WNW 23:08:55 40° WNW
Cosmos 1833 Rocket 3.5 23:16:08 37° E 23:16:08 37° E 23:20:53 10° NE
USA 234 3.2 23:16:26 59° SW 23:16:30 59° SW 23:22:58 10° WNW
CZ-4B R/B 4.1 23:16:47 16° ENE 23:16:47 16° ENE 23:18:51 10° NNE
Cosmos 1607 4.0 23:24:22 61° SE 23:24:37 61° ESE 23:31:00 10° NE
Cosmos 1455 Rocket 3.7 23:22:23 10° N 23:25:55 53° NNE 23:25:55 53° NNE
Cosmos 1975 Rocket 3.6 23:28:51 58° N 23:28:51 58° N 23:32:28 10° N
Cosmos 1777 Rocket 4.1 23:26:22 10° NNW 23:31:08 66° WNW 23:31:08 66° WNW
SL-16 R/B 4.5 23:28:40 10° ESE 23:33:28 24° NE 23:38:16 10° N
Exosat Rocket 4.3 23:28:28 10° NNW 23:34:27 75° ENE 23:37:11 43° SE
Cosmos 2369 3.7 23:28:59 10° NNW 23:34:20 66° W 23:34:20 66° W
Meteor 1-19 Rocket 4.1 23:38:26 79° SSW 23:38:48 89° W 23:44:42 10° NNE
Lacrosse 5 rocket 2.6 23:41:32 38° ENE 23:41:32 38° ENE 23:44:10 10° NE
Meteor 2-20 Rocket 4.3 23:36:54 10° NNW 23:42:59 77° W 23:43:32 71° SW
Cosmos 1072 Rocket 4.4 23:43:34 67° SSW 23:44:30 85° W 23:50:59 10° N
Meteor 2-9 Rocket 4.0 23:39:43 10° NNW 23:45:09 77° W 23:45:09 77° W
SeaSat 1 3.3 23:49:50 39° WNW 23:49:50 39° WNW 23:53:30 10° NW
Resurs 1-4 Rocket 4.4 23:47:20 10° ENE 23:49:39 13° E 23:51:31 11° ESE
Cosmos 1544 Rocket 4.2 23:45:39 10° NNW 23:49:01 51° NNW 23:49:01 51° NNW
H-2A R/B 4.3 23:56:27 17° WNW 23:56:27 17° WNW 23:58:27 10° NW
